DLH92J LPPR-EDDF

Flight info

Callsign DLH92J
Flight time 2h 30m
Altitude 36000
Route TURON P600 ASDEB DCT LOTEE DCT AZFIC UN741 MOKOR UN873 OBATO UM163 TSU UN858 OQQAL DCT RANUX DCT VALEK DCT LIPNI DCT LIMGO Z111 RAMOB RASVO1D
Aircraft A321/M-SDE2E3FGIJ1LORWXYZ/HB1

Departure

Time 2026-04-14 13:58
Airport Francisco de Sá Carneiro Airport (LPPR)

Arrival

Time 2026-04-14 16:28
Airport Frankfurt Main Airport (EDDF)
Time Latitude Longitude Altitude Speed Heading
2026-04-14 13:34 41.23593 -8.67224 264 ft 0 kts 89°
2026-04-14 13:34 41.23593 -8.67226 265 ft 0 kts 89°
2026-04-14 13:46 41.23593 -8.67246 245 ft 4 kts 89°
2026-04-14 13:46 41.23592 -8.67282 244 ft 4 kts 89°
2026-04-14 13:46 41.23591 -8.67316 242 ft 4 kts 71°
2026-04-14 13:46 41.23577 -8.67344 241 ft 4 kts 36°
2026-04-14 13:47 41.23568 -8.67352 241 ft 0 kts 32°
2026-04-14 13:50 41.23576 -8.67346 241 ft 5 kts 31°
2026-04-14 13:50 41.23634 -8.67333 242 ft 11 kts 353°
2026-04-14 13:50 41.23707 -8.67373 241 ft 13 kts 315°
2026-04-14 13:50 41.23776 -8.67461 239 ft 15 kts 339°
2026-04-14 13:51 41.23880 -8.67492 239 ft 16 kts 349°
2026-04-14 13:51 41.23997 -8.67521 238 ft 18 kts 349°
2026-04-14 13:51 41.24123 -8.67555 238 ft 19 kts 349°
2026-04-14 13:51 41.24240 -8.67602 236 ft 15 kts 321°
2026-04-14 13:52 41.24324 -8.67709 232 ft 18 kts 338°
2026-04-14 13:52 41.24445 -8.67746 223 ft 20 kts 348°
2026-04-14 13:52 41.24599 -8.67785 219 ft 25 kts 349°
2026-04-14 13:52 41.24742 -8.67822 212 ft 17 kts 346°
2026-04-14 13:53 41.24852 -8.67892 206 ft 18 kts 330°
2026-04-14 13:53 41.24984 -8.67941 193 ft 20 kts 348°
2026-04-14 13:53 41.25112 -8.67974 190 ft 13 kts 349°
2026-04-14 13:53 41.25167 -8.67989 185 ft 6 kts 348°
2026-04-14 13:54 41.25171 -8.67990 184 ft 0 kts 348°
2026-04-14 13:54 41.25208 -8.68000 185 ft 12 kts 348°
2026-04-14 13:55 41.25329 -8.68032 180 ft 21 kts 349°
2026-04-14 13:55 41.25479 -8.68071 175 ft 23 kts 349°
2026-04-14 13:55 41.25610 -8.68104 171 ft 18 kts 349°
2026-04-14 13:55 41.25677 -8.68194 170 ft 15 kts 266°
2026-04-14 13:56 41.25666 -8.68315 171 ft 10 kts 269°
2026-04-14 13:56 41.25629 -8.68340 172 ft 6 kts 179°
2026-04-14 13:56 41.25616 -8.68337 172 ft 0 kts 169°
2026-04-14 13:57 41.25612 -8.68336 172 ft 6 kts 169°
2026-04-14 13:57 41.25304 -8.68256 180 ft 82 kts 168°
2026-04-14 13:57 41.24526 -8.68052 208 ft 143 kts 169°
2026-04-14 13:57 41.23481 -8.67783 696 ft 153 kts 171°
2026-04-14 13:58 41.22434 -8.67515 1460 ft 155 kts 169°
2026-04-14 13:58 41.21324 -8.67222 1842 ft 172 kts 170°
2026-04-14 13:58 41.20085 -8.66896 2131 ft 192 kts 169°
2026-04-14 13:58 41.18707 -8.66529 2424 ft 211 kts 169°
2026-04-14 13:59 41.17200 -8.66123 2684 ft 233 kts 169°
2026-04-14 13:59 41.15515 -8.65668 3036 ft 255 kts 169°
2026-04-14 13:59 41.13768 -8.65164 3804 ft 259 kts 163°
2026-04-14 13:59 41.12199 -8.63966 4559 ft 266 kts 136°
2026-04-14 14:00 41.11178 -8.61920 5335 ft 271 kts 110°
2026-04-14 14:00 41.10972 -8.59433 6077 ft 276 kts 82°
2026-04-14 14:00 41.11667 -8.57066 6795 ft 281 kts 53°
2026-04-14 14:00 41.13142 -8.55377 7490 ft 283 kts 24°
2026-04-14 14:01 41.15046 -8.54789 8205 ft 284 kts 359°
2026-04-14 14:01 41.17022 -8.54816 8933 ft 285 kts 357°
2026-04-14 14:01 41.18991 -8.54866 9658 ft 288 kts 357°
2026-04-14 14:01 41.21006 -8.54922 10346 ft 291 kts 357°
2026-04-14 14:02 41.23095 -8.54981 10593 ft 312 kts 357°
2026-04-14 14:02 41.25338 -8.55040 10771 ft 331 kts 357°
2026-04-14 14:02 41.27673 -8.55091 11268 ft 338 kts 358°
2026-04-14 14:02 41.30017 -8.55135 11887 ft 340 kts 358°
2026-04-14 14:03 41.32409 -8.55179 12545 ft 342 kts 358°
2026-04-14 14:03 41.34796 -8.55224 13192 ft 344 kts 358°
2026-04-14 14:03 41.37202 -8.55269 13838 ft 347 kts 358°
2026-04-14 14:03 41.39622 -8.55314 14433 ft 349 kts 357°
2026-04-14 14:04 41.42057 -8.55361 14997 ft 351 kts 357°
2026-04-14 14:04 41.44511 -8.55410 15557 ft 354 kts 357°
2026-04-14 14:04 41.46981 -8.55460 16125 ft 357 kts 357°
2026-04-14 14:04 41.49472 -8.55512 16654 ft 359 kts 357°
2026-04-14 14:05 41.51982 -8.55563 17205 ft 362 kts 357°
2026-04-14 14:05 41.54508 -8.55612 17745 ft 365 kts 357°
2026-04-14 14:05 41.57056 -8.55661 18268 ft 367 kts 356°
2026-04-14 14:05 41.59616 -8.55710 18723 ft 369 kts 356°
2026-04-14 14:06 41.62191 -8.55749 19191 ft 372 kts 357°
2026-04-14 14:06 41.64754 -8.55782 19647 ft 374 kts 357°
2026-04-14 14:06 41.67363 -8.55812 20113 ft 376 kts 357°
2026-04-14 14:06 41.69995 -8.55841 20527 ft 379 kts 356°
2026-04-14 14:07 41.72638 -8.55873 20961 ft 381 kts 356°
2026-04-14 14:07 41.75305 -8.55910 21386 ft 384 kts 356°
2026-04-14 14:07 41.77979 -8.55949 21824 ft 386 kts 356°
2026-04-14 14:07 41.80669 -8.55987 22251 ft 388 kts 356°
2026-04-14 14:08 41.83380 -8.56026 22675 ft 390 kts 356°
2026-04-14 14:08 41.86100 -8.56066 23098 ft 392 kts 356°
2026-04-14 14:08 41.88838 -8.56106 23514 ft 395 kts 356°
2026-04-14 14:08 41.91590 -8.56147 23897 ft 397 kts 356°
2026-04-14 14:09 41.94363 -8.56185 24223 ft 400 kts 356°
2026-04-14 14:09 41.97149 -8.56218 24565 ft 401 kts 356°
2026-04-14 14:09 41.99950 -8.56249 24910 ft 403 kts 356°
2026-04-14 14:09 42.02762 -8.56282 25228 ft 405 kts 356°
2026-04-14 14:10 42.05590 -8.56320 25565 ft 407 kts 356°
2026-04-14 14:10 42.08433 -8.56095 25883 ft 412 kts
2026-04-14 14:10 42.11288 -8.55645 26201 ft 414 kts
2026-04-14 14:10 42.14158 -8.55191 26489 ft 416 kts
2026-04-14 14:11 42.17042 -8.54730 26798 ft 418 kts
2026-04-14 14:11 42.19936 -8.54264 27126 ft 420 kts
2026-04-14 14:11 42.22844 -8.53795 27436 ft 422 kts
2026-04-14 14:11 42.25771 -8.53326 27717 ft 424 kts
2026-04-14 14:12 42.28707 -8.52861 28010 ft 426 kts
2026-04-14 14:12 42.31658 -8.52393 28313 ft 428 kts
2026-04-14 14:12 42.34623 -8.51924 28607 ft 430 kts
2026-04-14 14:12 42.37603 -8.51449 28907 ft 432 kts
2026-04-14 14:13 42.40595 -8.50897 29195 ft 437 kts
2026-04-14 14:13 42.43480 -8.49490 29467 ft 448 kts 24°
2026-04-14 14:13 42.46013 -8.46958 29726 ft 460 kts 42°
2026-04-14 14:13 42.48105 -8.43638 29970 ft 464 kts 45°
2026-04-14 14:14 42.50428 -8.40636 30223 ft 461 kts 36°
2026-04-14 14:14 42.52902 -8.37861 30455 ft 463 kts 35°
2026-04-14 14:14 42.55402 -8.35106 30685 ft 464 kts 35°
2026-04-14 14:14 42.57907 -8.32340 30941 ft 464 kts 35°
2026-04-14 14:15 42.60400 -8.29555 31201 ft 465 kts 36°
2026-04-14 14:15 42.62884 -8.26742 31415 ft 466 kts 36°
2026-04-14 14:15 42.65366 -8.23906 31617 ft 466 kts 36°
2026-04-14 14:15 42.67840 -8.21056 31895 ft 466 kts 36°
2026-04-14 14:16 42.70305 -8.18211 32178 ft 465 kts 36°
2026-04-14 14:16 42.72773 -8.15367 32448 ft 464 kts 36°
2026-04-14 14:16 42.75236 -8.12529 32697 ft 464 kts 36°
2026-04-14 14:17 42.80160 -8.06863 33221 ft 463 kts 36°
2026-04-14 14:17 42.82619 -8.04032 33487 ft 463 kts 36°
2026-04-14 14:17 42.85074 -8.01199 33757 ft 462 kts 37°
2026-04-14 14:17 42.87520 -7.98371 34023 ft 461 kts 37°
2026-04-14 14:18 42.89966 -7.95542 34274 ft 461 kts 37°
2026-04-14 14:18 42.92408 -7.92715 34494 ft 460 kts 37°
2026-04-14 14:18 42.94850 -7.89887 34719 ft 460 kts 36°
2026-04-14 14:18 42.97286 -7.87061 34930 ft 460 kts 36°
2026-04-14 14:19 42.99723 -7.84227 35134 ft 460 kts 36°
2026-04-14 14:19 43.02158 -7.81396 35335 ft 460 kts 36°
2026-04-14 14:19 43.04561 -7.78601 35540 ft 459 kts 36°
2026-04-14 14:19 43.06994 -7.75766 35748 ft 459 kts 36°
2026-04-14 14:20 43.09422 -7.72933 35954 ft 459 kts 36°
2026-04-14 14:20 43.11849 -7.70097 36152 ft 459 kts 36°
2026-04-14 14:20 43.16695 -7.64437 36228 ft 456 kts 36°
2026-04-14 14:21 43.21515 -7.58794 36225 ft 456 kts 36°
2026-04-14 14:21 43.26316 -7.53147 36223 ft 454 kts 36°
2026-04-14 14:22 43.31113 -7.47503 36217 ft 454 kts 36°
2026-04-14 14:22 43.35909 -7.41852 36211 ft 454 kts 36°
2026-04-14 14:23 43.40709 -7.36191 36226 ft 455 kts 36°
2026-04-14 14:23 43.45473 -7.30541 36222 ft 455 kts 36°
2026-04-14 14:24 43.50271 -7.24843 36222 ft 456 kts 36°
2026-04-14 14:24 43.55069 -7.19141 36228 ft 455 kts 36°
2026-04-14 14:25 43.59083 -7.14354 36233 ft 455 kts 36°
2026-04-14 14:25 43.63840 -7.08676 36233 ft 455 kts 36°
2026-04-14 14:26 43.68622 -7.02954 36227 ft 455 kts 36°
2026-04-14 14:26 43.73407 -6.97206 36218 ft 456 kts 36°
2026-04-14 14:27 43.78184 -6.91456 36213 ft 456 kts 36°
2026-04-14 14:27 43.82970 -6.85693 36220 ft 456 kts 36°
2026-04-14 14:28 43.87743 -6.79917 36221 ft 455 kts 36°
2026-04-14 14:28 43.92507 -6.74148 36219 ft 454 kts 36°
2026-04-14 14:29 43.97265 -6.68385 36218 ft 454 kts 36°
2026-04-14 14:29 44.02019 -6.62612 36217 ft 454 kts 36°
2026-04-14 14:30 44.06774 -6.56815 36216 ft 454 kts 36°
2026-04-14 14:30 44.11525 -6.51016 36211 ft 455 kts 36°
2026-04-14 14:31 44.16280 -6.45203 36222 ft 455 kts 36°
2026-04-14 14:31 44.21018 -6.39380 36218 ft 454 kts 36°
2026-04-14 14:32 44.25748 -6.33565 36227 ft 453 kts 36°
2026-04-14 14:32 44.30475 -6.27734 36218 ft 453 kts 36°
2026-04-14 14:33 44.35192 -6.21901 36214 ft 453 kts 36°
2026-04-14 14:33 44.39882 -6.16104 36209 ft 453 kts 36°
2026-04-14 14:34 44.46950 -6.07338 36214 ft 453 kts 36°
2026-04-14 14:35 44.51646 -6.01481 36213 ft 452 kts 36°
2026-04-14 14:35 44.56339 -5.95624 36208 ft 451 kts 36°
2026-04-14 14:36 44.61024 -5.89778 36210 ft 450 kts 36°
2026-04-14 14:36 44.65701 -5.83923 36201 ft 450 kts 36°
2026-04-14 14:37 44.70274 -5.77894 36195 ft 452 kts 38°
2026-04-14 14:37 44.74746 -5.71669 36194 ft 452 kts 39°
2026-04-14 14:38 44.79204 -5.65432 36206 ft 451 kts 39°
2026-04-14 14:38 44.83675 -5.59262 36204 ft 449 kts 38°
2026-04-14 14:39 44.88147 -5.53130 36206 ft 449 kts 38°
2026-04-14 14:39 44.92617 -5.46961 36202 ft 449 kts 38°
2026-04-14 14:40 44.97079 -5.40771 36191 ft 449 kts 38°
2026-04-14 14:40 45.01536 -5.34581 36203 ft 449 kts 38°
2026-04-14 14:41 45.05988 -5.28391 36199 ft 448 kts 38°
2026-04-14 14:41 45.10429 -5.22200 36201 ft 448 kts 38°
2026-04-14 14:42 45.14861 -5.16014 36194 ft 447 kts 38°
2026-04-14 14:42 45.19286 -5.09812 36190 ft 447 kts 38°
2026-04-14 14:43 45.23700 -5.03591 36185 ft 447 kts 39°
2026-04-14 14:43 45.28084 -4.97416 36203 ft 446 kts 38°
2026-04-14 14:44 45.32489 -4.91215 36192 ft 445 kts 38°
2026-04-14 14:44 45.36875 -4.85017 36182 ft 444 kts 38°
2026-04-14 14:45 45.41256 -4.78813 36180 ft 444 kts 38°
2026-04-14 14:45 45.45627 -4.72589 36181 ft 444 kts 38°
2026-04-14 14:46 45.49996 -4.66370 36198 ft 444 kts 38°
2026-04-14 14:46 45.54373 -4.60142 36187 ft 444 kts 38°
2026-04-14 14:47 45.58727 -4.53918 36178 ft 442 kts 38°
2026-04-14 14:47 45.63055 -4.47694 36174 ft 442 kts 38°
2026-04-14 14:48 45.67382 -4.41463 36171 ft 441 kts 38°
2026-04-14 14:48 45.71712 -4.35228 36176 ft 442 kts 38°
2026-04-14 14:49 45.76042 -4.28977 36164 ft 442 kts 38°
2026-04-14 14:49 45.80370 -4.22711 36162 ft 443 kts 38°
2026-04-14 14:50 45.84699 -4.16436 36156 ft 443 kts 38°
2026-04-14 14:50 45.89024 -4.10149 36155 ft 443 kts 39°
2026-04-14 14:51 45.93351 -4.03851 36157 ft 443 kts 39°
2026-04-14 14:51 45.97684 -3.97530 36150 ft 444 kts 39°
2026-04-14 14:52 46.02010 -3.91183 36175 ft 445 kts 39°
2026-04-14 14:52 46.06302 -3.84864 36160 ft 443 kts 39°
2026-04-14 14:53 46.10614 -3.78533 36159 ft 442 kts 39°
2026-04-14 14:53 46.14917 -3.72188 36157 ft 443 kts 39°
2026-04-14 14:54 46.19221 -3.65818 36155 ft 444 kts 39°
2026-04-14 14:54 46.23523 -3.59428 36157 ft 444 kts 39°
2026-04-14 14:55 46.27823 -3.53046 36166 ft 442 kts 39°
2026-04-14 14:55 46.32106 -3.46676 36169 ft 441 kts 39°
2026-04-14 14:56 46.38509 -3.37097 36155 ft 441 kts 39°
2026-04-14 14:56 46.42750 -3.30750 36156 ft 441 kts 39°
2026-04-14 14:57 46.47014 -3.24348 36151 ft 441 kts 39°
2026-04-14 14:57 46.51275 -3.17949 36165 ft 441 kts 39°
2026-04-14 14:58 46.55514 -3.11532 36168 ft 441 kts 40°
2026-04-14 14:58 46.59043 -3.04099 36162 ft 452 kts 53°
2026-04-14 14:59 46.62209 -2.96192 36156 ft 452 kts 52°
2026-04-14 14:59 46.65387 -2.88312 36154 ft 451 kts 52°
2026-04-14 15:00 46.68557 -2.80416 36167 ft 451 kts 52°
2026-04-14 15:00 46.71698 -2.72513 36174 ft 451 kts 52°
2026-04-14 15:01 46.74832 -2.64612 36157 ft 450 kts 52°
2026-04-14 15:01 46.77959 -2.56716 36167 ft 449 kts 52°
2026-04-14 15:02 46.81081 -2.48817 36162 ft 449 kts 53°
2026-04-14 15:02 46.84193 -2.40922 36188 ft 448 kts 52°
2026-04-14 15:03 46.87292 -2.33103 36185 ft 446 kts 51°
2026-04-14 15:03 46.90534 -2.25413 36190 ft 443 kts 50°
2026-04-14 15:04 46.93811 -2.17792 36185 ft 443 kts 50°
2026-04-14 15:04 46.97062 -2.10114 36188 ft 444 kts 51°
2026-04-14 15:05 47.00442 -2.02610 36202 ft 435 kts 41°
2026-04-14 15:05 47.04826 -1.96820 36196 ft 420 kts 29°
2026-04-14 15:06 47.09491 -1.91684 36193 ft 419 kts 29°
2026-04-14 15:06 47.14146 -1.86544 36192 ft 419 kts 30°
2026-04-14 15:07 47.18795 -1.81394 36195 ft 419 kts 29°
2026-04-14 15:07 47.23457 -1.76252 36184 ft 419 kts 29°
2026-04-14 15:08 47.28120 -1.71099 36184 ft 419 kts 29°
2026-04-14 15:08 47.32754 -1.65965 36185 ft 420 kts 30°
2026-04-14 15:09 47.36922 -1.59666 36197 ft 433 kts 44°
2026-04-14 15:09 47.40599 -1.52709 36194 ft 433 kts 44°
2026-04-14 15:10 47.44300 -1.45703 36188 ft 433 kts 44°
2026-04-14 15:10 47.48003 -1.38688 36186 ft 433 kts 44°
2026-04-14 15:11 47.51703 -1.31671 36185 ft 433 kts 44°
2026-04-14 15:11 47.55394 -1.24655 36199 ft 433 kts 44°
2026-04-14 15:12 47.59083 -1.17606 36205 ft 432 kts 44°
2026-04-14 15:12 47.62750 -1.10566 36198 ft 432 kts 44°
2026-04-14 15:13 47.66424 -1.03516 36197 ft 432 kts 44°
2026-04-14 15:13 47.70096 -0.96474 36197 ft 431 kts 44°
2026-04-14 15:14 47.73759 -0.89414 36195 ft 431 kts 44°
2026-04-14 15:14 47.77408 -0.82341 36218 ft 431 kts 44°
2026-04-14 15:15 47.81050 -0.75276 36220 ft 430 kts 44°
2026-04-14 15:15 47.84070 -0.69408 36203 ft 429 kts 44°
2026-04-14 15:16 47.88283 -0.61200 36193 ft 429 kts 44°
2026-04-14 15:16 47.91908 -0.54127 36191 ft 429 kts 44°
2026-04-14 15:17 47.95527 -0.47032 36189 ft 430 kts 44°
2026-04-14 15:17 47.98528 -0.41124 36191 ft 430 kts 44°
2026-04-14 15:18 48.02132 -0.34008 36200 ft 430 kts 44°
2026-04-14 15:18 48.05743 -0.26870 36194 ft 432 kts 46°
2026-04-14 15:19 48.08651 -0.18834 36188 ft 444 kts 56°
2026-04-14 15:19 48.11275 -0.10459 36188 ft 445 kts 56°
2026-04-14 15:20 48.13907 -0.02074 36191 ft 445 kts 56°
2026-04-14 15:20 48.16537 0.06314 36206 ft 445 kts 56°
2026-04-14 15:21 48.19144 0.14701 36199 ft 444 kts 57°
2026-04-14 15:21 48.21740 0.23082 36199 ft 443 kts 57°
2026-04-14 15:22 48.24326 0.31465 36196 ft 443 kts 57°
2026-04-14 15:22 48.26914 0.39859 36195 ft 443 kts 57°
2026-04-14 15:23 48.29501 0.48265 36208 ft 443 kts 57°
2026-04-14 15:23 48.32053 0.56608 36211 ft 442 kts 57°
2026-04-14 15:24 48.34613 0.65005 36207 ft 441 kts 57°
2026-04-14 15:24 48.37166 0.73390 36198 ft 441 kts 57°
2026-04-14 15:25 48.39709 0.81780 36198 ft 441 kts 57°
2026-04-14 15:25 48.42251 0.90176 36224 ft 440 kts 57°
2026-04-14 15:26 48.44778 0.98572 36220 ft 440 kts 57°
2026-04-14 15:26 48.47289 1.06969 36214 ft 440 kts 57°
2026-04-14 15:27 48.49797 1.15389 36209 ft 440 kts 57°
2026-04-14 15:27 48.52241 1.23603 36207 ft 440 kts 57°
2026-04-14 15:28 48.54748 1.32025 36219 ft 439 kts 57°
2026-04-14 15:28 48.57229 1.40398 36210 ft 436 kts 57°
2026-04-14 15:29 48.59699 1.48764 36207 ft 436 kts 57°
2026-04-14 15:29 48.62160 1.57143 36207 ft 436 kts 57°
2026-04-14 15:30 48.64607 1.65545 36212 ft 437 kts 58°
2026-04-14 15:30 48.66832 1.74159 36245 ft 442 kts 61°
2026-04-14 15:31 48.68860 1.82898 36209 ft 439 kts 62°
2026-04-14 15:31 48.70888 1.91595 36208 ft 438 kts 61°
2026-04-14 15:32 48.72969 2.00253 36210 ft 438 kts 61°
2026-04-14 15:32 48.75063 2.08910 36211 ft 438 kts 61°
2026-04-14 15:33 48.76918 2.17757 36211 ft 443 kts 65°
2026-04-14 15:33 48.78470 2.26818 36227 ft 444 kts 67°
2026-04-14 15:34 48.79988 2.35870 36224 ft 442 kts 66°
2026-04-14 15:34 48.81571 2.44862 36220 ft 441 kts 65°
2026-04-14 15:35 48.83179 2.53765 36216 ft 440 kts 65°
2026-04-14 15:35 48.84783 2.62724 36247 ft 440 kts 66°
2026-04-14 15:36 48.86364 2.71732 36206 ft 437 kts 66°
2026-04-14 15:36 48.87914 2.80585 36208 ft 437 kts 66°
2026-04-14 15:37 48.89303 2.88548 36210 ft 437 kts 66°
2026-04-14 15:37 48.90850 2.97478 36212 ft 437 kts 66°
2026-04-14 15:38 48.92390 3.06428 36217 ft 438 kts 66°
2026-04-14 15:38 48.93926 3.15385 36233 ft 437 kts 67°
2026-04-14 15:39 48.95458 3.24339 36232 ft 437 kts 67°
2026-04-14 15:39 48.96977 3.33297 36227 ft 438 kts 67°
2026-04-14 15:40 48.98493 3.42268 36223 ft 437 kts 67°
2026-04-14 15:40 49.00005 3.51237 36223 ft 437 kts 67°
2026-04-14 15:41 49.01506 3.60216 36242 ft 438 kts 68°
2026-04-14 15:41 49.02998 3.69229 36232 ft 439 kts 68°
2026-04-14 15:42 49.04489 3.78256 36226 ft 440 kts 68°
2026-04-14 15:42 49.05985 3.87295 36224 ft 440 kts 68°
2026-04-14 15:43 49.07468 3.96349 36217 ft 440 kts 68°
2026-04-14 15:43 49.08941 4.05411 36216 ft 440 kts 68°
2026-04-14 15:44 49.10408 4.14473 36212 ft 440 kts 68°
2026-04-14 15:44 49.11873 4.23550 36215 ft 440 kts 68°
2026-04-14 15:45 49.13324 4.32631 36213 ft 440 kts 68°
2026-04-14 15:45 49.15287 4.41330 36229 ft 430 kts 59°
2026-04-14 15:46 49.17591 4.49768 36230 ft 431 kts 60°
2026-04-14 15:46 49.19890 4.58237 36231 ft 432 kts 60°
2026-04-14 15:47 49.22179 4.66727 36220 ft 432 kts 60°
2026-04-14 15:47 49.24468 4.75254 36217 ft 434 kts 60°
2026-04-14 15:48 49.26759 4.83794 36216 ft 434 kts 60°
2026-04-14 15:48 49.29035 4.92360 36235 ft 435 kts 61°
2026-04-14 15:49 49.31315 5.00952 36217 ft 436 kts 62°
2026-04-14 15:49 49.33595 5.09559 36214 ft 436 kts 61°
2026-04-14 15:50 49.35878 5.18176 36208 ft 437 kts 62°
2026-04-14 15:50 49.38152 5.26827 36213 ft 437 kts 62°
2026-04-14 15:51 49.40424 5.35495 36226 ft 438 kts 62°
2026-04-14 15:51 49.42692 5.44183 36236 ft 439 kts 63°
2026-04-14 15:52 49.44950 5.52894 36225 ft 439 kts 63°
2026-04-14 15:52 49.47211 5.61616 36220 ft 439 kts 63°
2026-04-14 15:53 49.49464 5.70357 36217 ft 440 kts 63°
2026-04-14 15:53 49.51706 5.79108 36214 ft 440 kts 63°
2026-04-14 15:54 49.54943 5.92351 36223 ft 440 kts 64°
2026-04-14 15:55 49.57103 6.01167 36214 ft 440 kts 64°
2026-04-14 15:55 49.59280 6.09975 36219 ft 440 kts 64°
2026-04-14 15:56 49.61444 6.18804 36212 ft 441 kts 64°
2026-04-14 15:56 49.63628 6.27565 36211 ft 438 kts 59°
2026-04-14 15:57 49.66638 6.35719 36225 ft 434 kts 54°
2026-04-14 15:57 49.69734 6.43734 36051 ft 438 kts 54°
2026-04-14 15:57 49.71274 6.47730 35800 ft 438 kts 53°
2026-04-14 15:58 49.73046 6.51509 35556 ft 432 kts 44°
2026-04-14 15:58 49.75149 6.54772 35311 ft 425 kts 35°
2026-04-14 15:58 49.77448 6.57633 35068 ft 424 kts 34°
2026-04-14 15:58 49.79752 6.60478 34565 ft 424 kts 34°
2026-04-14 15:59 49.82060 6.63343 33709 ft 427 kts 34°
2026-04-14 15:59 49.84379 6.66238 32827 ft 428 kts 34°
2026-04-14 15:59 49.86695 6.69144 31974 ft 429 kts 34°
2026-04-14 15:59 49.89018 6.72058 31120 ft 430 kts 34°
2026-04-14 16:00 49.91346 6.74981 30155 ft 433 kts 35°
2026-04-14 16:00 49.93695 6.77929 29153 ft 434 kts 35°
2026-04-14 16:00 49.96028 6.80864 28520 ft 427 kts 35°
2026-04-14 16:00 49.98315 6.83749 27949 ft 420 kts 36°
2026-04-14 16:01 50.00568 6.86591 27360 ft 415 kts 36°
2026-04-14 16:01 50.02798 6.89404 26765 ft 410 kts 36°
2026-04-14 16:01 50.05001 6.92183 26198 ft 405 kts 36°
2026-04-14 16:01 50.07176 6.94932 25630 ft 401 kts 36°
2026-04-14 16:02 50.09328 6.97662 25068 ft 397 kts 37°
2026-04-14 16:02 50.11454 7.00365 24512 ft 394 kts 37°
2026-04-14 16:02 50.13571 7.03058 23953 ft 391 kts 37°
2026-04-14 16:02 50.15689 7.05753 23350 ft 403 kts 37°
2026-04-14 16:03 50.17922 7.08586 22760 ft 424 kts 37°
2026-04-14 16:03 50.19455 7.10535 22375 ft 428 kts 37°
2026-04-14 16:03 50.21761 7.13475 21795 ft 428 kts 37°
2026-04-14 16:03 50.24059 7.16408 21238 ft 425 kts 38°
2026-04-14 16:04 50.26137 7.19680 20682 ft 425 kts 52°
2026-04-14 16:04 50.27454 7.23791 20157 ft 426 kts 72°
2026-04-14 16:04 50.27832 7.28371 19617 ft 427 kts 91°
2026-04-14 16:04 50.27217 7.32887 19067 ft 426 kts 111°
2026-04-14 16:05 50.25733 7.36874 18497 ft 425 kts 125°
2026-04-14 16:05 50.24016 7.40604 17857 ft 421 kts 125°
2026-04-14 16:05 50.22309 7.44278 17176 ft 416 kts 125°
2026-04-14 16:05 50.20620 7.47921 16583 ft 412 kts 125°
2026-04-14 16:06 50.18952 7.51532 16017 ft 409 kts 125°
2026-04-14 16:06 50.17298 7.55119 15425 ft 405 kts 124°
2026-04-14 16:06 50.15664 7.58653 14914 ft 398 kts 124°
2026-04-14 16:06 50.14083 7.62056 14753 ft 373 kts 124°
2026-04-14 16:07 50.12618 7.65199 14248 ft 348 kts 124°
2026-04-14 16:07 50.11361 7.68332 13247 ft 337 kts 114°
2026-04-14 16:07 50.10534 7.71598 12858 ft 310 kts 104°
2026-04-14 16:07 50.09942 7.74733 12733 ft 296 kts 105°
2026-04-14 16:08 50.09355 7.77733 12589 ft 281 kts 106°
2026-04-14 16:08 50.08807 7.80565 12316 ft 269 kts 104°
2026-04-14 16:08 50.08486 7.83373 11871 ft 266 kts 95°
2026-04-14 16:08 50.08461 7.86246 11456 ft 266 kts 85°
2026-04-14 16:09 50.08724 7.89078 11144 ft 264 kts 77°
2026-04-14 16:09 50.09259 7.91801 10836 ft 262 kts 69°
2026-04-14 16:09 50.09913 7.94444 10358 ft 262 kts 69°
2026-04-14 16:09 50.10563 7.97098 10018 ft 262 kts 69°
2026-04-14 16:10 50.11209 7.99739 9702 ft 260 kts 69°
2026-04-14 16:10 50.11850 8.02360 9379 ft 258 kts 69°
2026-04-14 16:10 50.12484 8.04957 9073 ft 255 kts 69°
2026-04-14 16:10 50.13111 8.07526 8780 ft 252 kts 69°
2026-04-14 16:11 50.13729 8.10071 8474 ft 250 kts 69°
2026-04-14 16:11 50.14338 8.12581 8329 ft 248 kts 69°
2026-04-14 16:11 50.14951 8.15099 8210 ft 248 kts 69°
2026-04-14 16:11 50.15563 8.17615 8196 ft 248 kts 69°
2026-04-14 16:12 50.16173 8.20134 8204 ft 249 kts 69°
2026-04-14 16:12 50.16779 8.22653 8205 ft 248 kts 69°
2026-04-14 16:12 50.17386 8.25178 8201 ft 248 kts 69°
2026-04-14 16:12 50.17992 8.27706 8201 ft 249 kts 68°
2026-04-14 16:13 50.18597 8.30222 8203 ft 248 kts 68°
2026-04-14 16:13 50.19193 8.32742 8200 ft 248 kts 71°
2026-04-14 16:13 50.19400 8.35361 8164 ft 251 kts 94°
2026-04-14 16:13 50.18917 8.38000 7897 ft 250 kts 118°
2026-04-14 16:14 50.17849 8.40058 7646 ft 249 kts 140°
2026-04-14 16:14 50.16335 8.41367 7396 ft 251 kts 159°
2026-04-14 16:14 50.14680 8.42224 7143 ft 251 kts 169°
2026-04-14 16:14 50.12949 8.42240 6896 ft 250 kts 193°
2026-04-14 16:15 50.11367 8.41192 6628 ft 248 kts 216°
2026-04-14 16:15 50.10174 8.39271 6391 ft 248 kts 240°
2026-04-14 16:15 50.09486 8.36838 6127 ft 245 kts 252°
2026-04-14 16:15 50.08891 8.34346 5865 ft 245 kts 252°
2026-04-14 16:16 50.08294 8.31867 5610 ft 244 kts 251°
2026-04-14 16:16 50.07698 8.29411 5461 ft 243 kts 251°
2026-04-14 16:16 50.07100 8.26955 5331 ft 243 kts 251°
2026-04-14 16:16 50.06501 8.24503 5204 ft 242 kts 251°
2026-04-14 16:17 50.05901 8.22055 5086 ft 241 kts 251°
2026-04-14 16:17 50.05304 8.19624 5005 ft 240 kts 251°
2026-04-14 16:17 50.04708 8.17197 5021 ft 240 kts 251°
2026-04-14 16:17 50.04114 8.14768 5016 ft 241 kts 251°
2026-04-14 16:18 50.03521 8.12339 5025 ft 240 kts 251°
2026-04-14 16:18 50.02927 8.09909 5029 ft 240 kts 251°
2026-04-14 16:18 50.02335 8.07484 5021 ft 240 kts 251°
2026-04-14 16:18 50.01760 8.05090 5011 ft 239 kts 251°
2026-04-14 16:19 50.01174 8.02666 5013 ft 240 kts 251°
2026-04-14 16:19 50.00582 8.00241 5013 ft 240 kts 251°
2026-04-14 16:19 49.99896 7.97871 5015 ft 241 kts 235°
2026-04-14 16:19 49.98656 7.96280 5033 ft 227 kts 202°
2026-04-14 16:20 49.97134 7.96005 5017 ft 221 kts 171°
2026-04-14 16:20 49.95753 7.96925 5024 ft 217 kts 136°
2026-04-14 16:20 49.94940 7.98843 5028 ft 213 kts 108°
2026-04-14 16:20 49.94470 8.01022 5017 ft 213 kts 104°
2026-04-14 16:21 49.94045 8.03227 5009 ft 213 kts 104°
2026-04-14 16:21 49.93636 8.05435 5015 ft 213 kts 101°
2026-04-14 16:21 49.93591 8.07725 5031 ft 219 kts 77°
2026-04-14 16:21 49.94053 8.09888 5013 ft 206 kts 67°
2026-04-14 16:22 49.94564 8.11948 5016 ft 203 kts 67°
2026-04-14 16:22 49.95054 8.13945 5030 ft 192 kts 67°
2026-04-14 16:22 49.95520 8.15854 5018 ft 188 kts 67°
2026-04-14 16:22 49.95982 8.17748 4895 ft 187 kts 67°
2026-04-14 16:23 49.96441 8.19633 4668 ft 185 kts 67°
2026-04-14 16:23 49.96894 8.21497 4409 ft 185 kts 67°
2026-04-14 16:23 49.97344 8.23350 4146 ft 183 kts 67°
2026-04-14 16:23 49.97787 8.25173 3884 ft 182 kts 67°
2026-04-14 16:24 49.98232 8.27009 3618 ft 181 kts 66°
2026-04-14 16:24 49.98678 8.28848 3359 ft 182 kts 68°
2026-04-14 16:24 49.99123 8.30689 3094 ft 181 kts 67°
2026-04-14 16:24 49.99567 8.32525 2830 ft 181 kts 67°
2026-04-14 16:25 50.00010 8.34355 2556 ft 181 kts 68°
2026-04-14 16:25 50.00449 8.36174 2307 ft 179 kts 68°
2026-04-14 16:25 50.00880 8.37964 2064 ft 172 kts 68°
2026-04-14 16:25 50.01281 8.39627 1807 ft 158 kts 66°
2026-04-14 16:26 50.01652 8.41170 1581 ft 147 kts 66°
2026-04-14 16:26 50.02002 8.42622 1368 ft 141 kts 68°
2026-04-14 16:26 50.02349 8.44061 1155 ft 143 kts 66°
2026-04-14 16:26 50.02702 8.45517 935 ft 145 kts 68°
2026-04-14 16:27 50.03050 8.46977 731 ft 143 kts 67°
2026-04-14 16:27 50.03397 8.48425 535 ft 142 kts 67°
2026-04-14 16:27 50.03740 8.49853 337 ft 141 kts 68°
2026-04-14 16:27 50.04050 8.51137 329 ft 106 kts 70°
2026-04-14 16:28 50.04218 8.51856 334 ft 31 kts 72°
2026-04-14 16:28 50.04238 8.52130 340 ft 25 kts 94°
2026-04-14 16:28 50.04221 8.52301 349 ft 9 kts 99°
2026-04-14 16:28 50.04217 8.52339 347 ft 2 kts 99°
2026-04-14 16:29 50.04215 8.52357 345 ft 3 kts 99°
2026-04-14 16:29 50.04208 8.52421 348 ft 7 kts 99°
2026-04-14 16:29 50.04206 8.52443 348 ft 0 kts 100°
2026-04-14 16:29 50.04206 8.52444 348 ft 1 kts 100°
2026-04-14 16:30 50.04196 8.52529 356 ft 16 kts 99°
2026-04-14 16:30 50.04215 8.52738 353 ft 21 kts 72°
2026-04-14 16:30 50.04266 8.52949 356 ft 21 kts 69°
2026-04-14 16:30 50.04317 8.53161 366 ft 21 kts 70°
2026-04-14 16:31 50.04370 8.53381 371 ft 22 kts 69°
2026-04-14 16:31 50.04403 8.53622 375 ft 23 kts 84°
2026-04-14 16:31 50.04420 8.53881 375 ft 25 kts 84°
2026-04-14 16:31 50.04439 8.54155 375 ft 26 kts 83°
2026-04-14 16:32 50.04453 8.54381 373 ft 20 kts 86°
2026-04-14 16:32 50.04436 8.54584 367 ft 20 kts 114°
2026-04-14 16:32 50.04336 8.54754 358 ft 18 kts 150°
2026-04-14 16:32 50.04212 8.54830 355 ft 16 kts 159°
2026-04-14 16:33 50.04098 8.54895 350 ft 19 kts 160°
2026-04-14 16:33 50.04020 8.54966 355 ft 11 kts 108°
2026-04-14 16:33 50.04039 8.55102 358 ft 17 kts 69°
2026-04-14 16:33 50.04090 8.55311 359 ft 22 kts 69°
2026-04-14 16:34 50.04146 8.55549 358 ft 24 kts 69°
2026-04-14 16:34 50.04206 8.55798 356 ft 25 kts 70°
2026-04-14 16:34 50.04267 8.56053 356 ft 25 kts 69°
2026-04-14 16:34 50.04329 8.56313 362 ft 26 kts 69°
2026-04-14 16:35 50.04391 8.56567 361 ft 20 kts 70°
2026-04-14 16:35 50.04438 8.56770 363 ft 21 kts 70°
2026-04-14 16:35 50.04522 8.56879 359 ft 17 kts 13°
2026-04-14 16:35 50.04646 8.56929 358 ft 19 kts 19°
2026-04-14 16:36 50.04739 8.56995 360 ft 8 kts 25°
2026-04-14 16:36 50.04778 8.56991 361 ft 5 kts 316°
2026-04-14 16:36 50.04795 8.56940 357 ft 5 kts 295°
2026-04-14 16:36 50.04805 8.56906 359 ft 0 kts 294°